Regional Weather Roundup
Issued by NWS

Home | Current Version | Previous Version | Text Only | Print | Product List | Glossary Off
Versions: 1 2 3 4 5 6 7 8 9 10 11 12 13 14 15 16 17 18 19 20 21 22 23 24 25 26 27 28 29 30 31 32 33 34 35 36 37 38 39 40 41 42 43 44 45 46 47 48 49 50

000
ASUS43 KMPX 300501
RWRMN
WEATHER ROUNDUP FOR MINNESOTA
NATIONAL WEATHER SERVICE TWIN CITIES/CHANHASSEN MN
1200 AM CDT THU MAR 30 2017


NOTE: "FAIR" INDICATES FEW OR NO CLOUDS BELOW 12,000 FEET WITH NO
SIGNIFICANT WEATHER AND/OR OBSTRUCTIONS TO VISIBILITY. N/A MEANS
CURRENT SKY AND/OR WEATHER CONDITIONS ARE NOT AVAILABLE.

MNZ060>063-068>070-300600-
   Twin Cities Metro

CITY           SKY/WX    TMP DP  RH WIND       PRES   REMARKS
TWIN CITIES    CLOUDY    42  36  79 E10       30.08F
ST PAUL        CLOUDY    42  37  82 E9        30.10F
CRYSTAL        CLOUDY    42  35  76 E10       30.07F
BLAINE         CLOUDY    43  39  87 E9G17     30.08F
LAKEVILLE      RAIN      39  39 100 E9        30.06F
EDEN PRAIRIE   LGT RAIN  43  37  79 E9        30.06F
SOUTH ST PAUL  CLOUDY    42  36  78 E7        30.08F
LAKE ELMO      CLOUDY    41  36  81 E10       30.09F
$$
MNZ001>005-007-008-013>017-022>024-027-028-300600-
   Northwest Minnesota

CITY           SKY/WX    TMP DP  RH WIND       PRES   REMARKS
BEMIDJI        CLEAR     35  30  82 SE8       30.06F WCI  29
HALLOCK        CLOUDY    45  39  81 S20       29.95F
ROSEAU         PTCLDY    45  36  70 S9        29.99S
WARROAD        PTCLDY    45  36  70 S14G22    29.99F
THIEF RVR FALL PTCLDY    43  35  73 S15       30.01F
CROOKSTON      PTCLDY    43  37  81 S23       30.00F
FOSSTON        CLEAR     36  30  80 S8        30.04F
DETROIT LAKES  CLEAR     37  34  87 S8        30.06F
MOORHEAD       CLEAR     43  36  75 S16       30.05F
PARK RAPIDS    CLEAR     40  29  64 SE7       30.06F
MAHNOMEN       FAIR      38  33  83 S7        30.04F
$$
MNZ006-009>011-018-025>026-300600-
   North Central Minnesota

CITY           SKY/WX    TMP DP  RH WIND       PRES   REMARKS
BAUDETTE       PTCLDY    41  32  70 S14       30.03F
FLAG ISLAND    PTCLDY    37  32  81 S21       29.99F
INTL FALLS     CLEAR     36  27  69 SE7       30.08F
WASKISH        CLEAR     39  32  75 S6        30.05F
BIG FORK       CLEAR     36  28  75 SE5       30.10F
LONGVILLE      CLOUDY    34  30  86 CALM      30.09F
GRAND RAPIDS   CLOUDY    31  28  89 SE5       30.13F WCI  26
CRANE LAKE     MOCLDY    28  25  86 CALM      30.15F
ORR            CLEAR     30  23  74 CALM      30.10F
COOK           PTCLDY    28  25  86 CALM      30.13S
WALKER         FAIR      35  30  85 E3        30.08F
$$
MNZ012-019>021-037-300600-
   Northeast Minnesota

CITY           SKY/WX    TMP DP  RH WIND       PRES   REMARKS
DULUTH         PTCLDY    31  28  89 E10       30.13F WCI  22
ELY            CLOUDY    28  23  80 E3        30.13F
HIBBING        PTCLDY    28  25  88 CALM      30.12F
EVELETH        CLOUDY    30  24  77 CALM      30.14F
DULUTH HARBOR  PTCLDY    36  32  87 NE16      30.17F
TWO HARBORS    PTCLDY    34  28  80 NE8       30.13F WCI  27
SILVER BAY     CLOUDY    32  28  86 NE8       30.15F WCI  25
G MARAIS ARPRT PTCLDY    27  18  69 NE7       30.15F WCI  19
$$
MNZ029>031-032-039>041-046>048-054>057-064-300600-
   West Central Minnesota

CITY           SKY/WX    TMP DP  RH WIND       PRES   REMARKS
FERGUS FALLS   CLEAR     36  36 100 S5        30.10F
WHEATON        PTCLDY    39  36  87 SE7       30.09F
MORRIS         CLOUDY    39  37  93 SE5       30.07F
ALEXANDRIA     CLOUDY    37  35  92 SE5       30.08F
ELBOW LAKE     FAIR      37  37  99 E3        30.07F
WADENA         CLOUDY    34  32  93 CALM      30.07F
GLENWOOD       CLOUDY    37  36  93 SE3       30.08F
APPLETON       CLOUDY    43  37  81 CALM      30.07F
BENSON         CLOUDY    43  36  75 S7        30.09F
ORTONVILLE     CLOUDY    41  36  81 SE8       30.07F
MADISON        CLOUDY    43  39  87 E7        30.06F
WILLMAR        CLOUDY    43  39  87 E8        30.08F
$$
MNZ033>034-036-042>043-049>051-058-059-300600-
   Central Minnesota

CITY           SKY/WX    TMP DP  RH WIND       PRES   REMARKS
ST CLOUD       CLOUDY    39  36  89 E3        30.09F
SAUK CENTRE    MOCLDY    34  34  99 CALM      30.09F
PAYNESVILLE    CLOUDY    41  41 100 SE6       30.08F
AITKIN         PTCLDY    32  27  80 CALM      30.10F
PINE RIVER     CLOUDY    34  30  86 SE6       30.12F WCI  29
BRAINERD       PTCLDY    34  30  85 CALM      30.10F
STAPLES        CLOUDY    32  28  86 CALM      30.09S
LONG PRAIRIE   CLOUDY    34  32  93 CALM      30.09F
LITTLE FALLS   CLOUDY    37  32  81 E3        30.10S
LITCHFIELD     CLOUDY    43  39  87 E10       30.08F
BUFFALO        CLOUDY    41  37  85 NE7       30.09F
MAPLE LAKE     CLOUDY    42  39  89 E6        30.09F
HUTCHINSON     DRIZZLE   41  39  93 NE8       30.07F
$$
MNZ037-044-045-052-053-300600-
   East Central Minnesota

CITY           SKY/WX    TMP DP  RH WIND       PRES   REMARKS
PRINCETON      CLOUDY    43  37  81 CALM      30.10F
MORA           CLOUDY    34  30  86 E3        30.14S
CAMBRIDGE      CLOUDY    43  34  70 CALM      30.09S
RUSH CITY      CLOUDY    37  32  81 NE3       30.12S
MOOSE LAKE     CLOUDY    32  30  93 NE5       30.12F WCI  27
CLOQUET        CLOUDY    30  28  93 E7        30.13F WCI  23
MCGREGOR       PTCLDY    30  28  93 E3        30.12F
$$
MNZ071>073-080-081-089-090-097-098-300600-
   Southwest Minnesota

CITY           SKY/WX    TMP DP  RH WIND       PRES   REMARKS
MONTEVIDEO     CLOUDY    41  37  87 SE9       30.06F
GRANITE FALLS  CLOUDY    42  39  88 NE8       30.06F
CANBY          CLOUDY    41  38  87 CALM      30.06F
MARSHALL       LGT RAIN  39  38  96 E12       30.04F
REDWOOD FALLS  CLOUDY    41  37  86 E7        30.04F
OLIVIA         MOCLDY    39  36  87 E7        30.05F
PIPESTONE      CLOUDY    37  34  87 E12G18    29.98F
WINDOM         DRIZZLE   37  37 100 NE13      29.99F
WORTHINGTON    CLOUDY    37  36  96 NE15      29.96F
JACKSON        LGT SNOW  37  37 100 E14       29.97F
TRACY          DRIZZLE   39  38  97 NE9       30.02F
SLAYTON        DRIZZLE   37  35  96 NE12G17   30.01F
$$
MNZ065>067-074>077-082>085-091>093-300600-
   South Central Minnesota

CITY           SKY/WX    TMP DP  RH WIND       PRES   REMARKS
MANKATO        LGT RAIN  40  37  89 E12       30.03F
NEW ULM        LGT RAIN  39  37  93 E12       30.03F
ST JAMES       CLOUDY    39  37  93 NE12G17   30.01F
FAIRMONT       LGT RAIN  39  37  92 E12       29.98F
GLENCOE        DRIZZLE   40  41 100 E10       30.06F
FARIBAULT      DRIZZLE   39  37  93 E8        30.05S
OWATONNA       CLOUDY    39  36  87 E18G26    30.02F
WASECA         CLOUDY    39  34  81 E14       30.03F
ALBERT LEA     LGT RAIN  37  37 100 E22G29    29.98F
$$
MNZ078>079-086>088-094>096-300600-
   Southeast Minnesota

CITY           SKY/WX    TMP DP  RH WIND       PRES   REMARKS
ROCHESTER      LGT RAIN  39  35  86 E20G33    30.00F
RED WING       LGT RAIN  41  36  81 E9        30.06F
STANTON        LGT RAIN  41  37  87 E9        30.04F
DODGE CENTER   CLOUDY    37  37 100 E14       30.01F
WINONA         RAIN      37  36  93 E9        30.06F
AUSTIN         CLOUDY    39  36  87 E22G28    29.99F
PRESTON        CLOUDY    37  34  87 E20G25    30.01F
$$
ABBREVIATIONS USED IN REMARKS
   TC - TEMPERATURES IN CELSIUS
  WCI - WIND CHILL INDEX
   HX - HEAT INDEX
  VSB - VISIBILITY
$$



USA.gov is the U.S. government's official web portal to all federal, state and local government web resources and services.